Regional Weather Roundup
Issued by NWS

Home | Current Version | Previous Version | Graphics & Text | Print | Product List | Glossary On
Versions: 1 2 3 4 5 6 7 8 9 10 11 12 13 14 15 16 17 18 19 20 21 22 23 24 25 26 27 28 29 30 31 32 33 34 35 36 37 38 39 40 41 42 43 44 45 46 47 48 49 50
000
ASUS43 KMPX 022101
RWRMN
WEATHER ROUNDUP FOR MINNESOTA
NATIONAL WEATHER SERVICE TWIN CITIES/CHANHASSEN MN
400 PM CDT MON MAY 02 2016


NOTE: "FAIR" INDICATES FEW OR NO CLOUDS BELOW 12,000 FEET WITH NO
SIGNIFICANT WEATHER AND/OR OBSTRUCTIONS TO VISIBILITY. N/A MEANS
CURRENT SKY AND/OR WEATHER CONDITIONS ARE NOT AVAILABLE.

MNZ060>063-068>070-022200-
   Twin Cities Metro

CITY           SKY/WX    TMP DP  RH WIND       PRES   REMARKS
TWIN CITIES    MOSUNNY   64  32  30 VRB3      30.02F
ST PAUL        SUNNY     66  31  27 E3        30.02F
CRYSTAL        SUNNY     67  29  24 S8        30.01F
BLAINE         MOSUNNY   66  32  28 VRB3      30.02F
EDEN PRAIRIE   SUNNY     66  29  24 VRB5      30.02F
SOUTH ST PAUL  SUNNY     65  30  26 SW5       30.02F
LAKE ELMO      FAIR      64  34  32 CALM      30.03F
$$
MNZ001>005-007-008-013>017-022>024-027-028-022200-
   Northwest Minnesota

CITY           SKY/WX    TMP DP  RH WIND       PRES   REMARKS
BEMIDJI        SUNNY     67  28  22 S5        29.98F
HALLOCK        MOSUNNY   72  21  15 W6        29.96F
ROSEAU         SUNNY     70  23  17 NW3       29.98F
WARROAD        SUNNY     63  34  34 NE9       29.99F
THIEF RVR FALL SUNNY     68  25  19 SE5       29.99F
CROOKSTON      SUNNY     70  27  19 SW3       29.97F
FOSSTON        SUNNY     72  25  17 SW7       29.99S
DETROIT LAKES  SUNNY     66  30  26 S7        30.00F
MOORHEAD       SUNNY     66  27  22 SW3       29.98F
PARK RAPIDS    SUNNY     68  27  21 S7        29.98F
MAHNOMEN       FAIR      67  30  25 NE3       29.98F
$$
MNZ006-009>011-018-025>026-022200-
   North Central Minnesota

CITY           SKY/WX    TMP DP  RH WIND       PRES   REMARKS
BAUDETTE       SUNNY     68  26  20 SE7       29.97F
FLAG ISLAND    SUNNY     61  30  31 SE6       29.98F
INTL FALLS     SUNNY     66  31  27 VRB5      29.97F
WASKISH        SUNNY     64  28  25 W6        30.00F
BIG FORK       MOSUNNY   70  30  23 S7G16     29.99F
LONGVILLE      SUNNY     66  28  24 S3        29.99F
GRAND RAPIDS   MOSUNNY   63  28  27 S3        30.01F
CRANE LAKE     MOSUNNY   64  25  22 SW6       30.00F
ORR            SUNNY     68  23  18 W5        29.97F
COOK           MOSUNNY   64  30  27 SW3       30.00F
WALKER         FAIR      64  30  27 E8        29.99F
$$
MNZ012-019>021-037-022200-
   Northeast Minnesota

CITY           SKY/WX    TMP DP  RH WIND       PRES   REMARKS
DULUTH         MOSUNNY   63  33  32 SE14G22   30.01F
ELY            PTSUNNY   63  27  25 CALM      30.00F
HIBBING        PTSUNNY   63  31  30 NW3       30.00F
EVELETH        MOSUNNY   63  28  27 S3        30.01F
DULUTH HARBOR  SUNNY     46  36  66 NE3       30.03F
TWO HARBORS    SUNNY     64  37  36 S12       30.01F
SILVER BAY     SUNNY     61  32  33 SE8       30.01F
GRAND MARAIS     N/A     41  34  76 CALM      30.06F
G MARAIS ARPRT SUNNY     54  27  35 S9        30.04F
$$
MNZ029>031-032-039>041-046>048-054>057-064-022200-
   West Central Minnesota

CITY           SKY/WX    TMP DP  RH WIND       PRES   REMARKS
FERGUS FALLS   MOSUNNY   66  30  26 SE6       29.96F
WHEATON        SUNNY     70  34  26 SW8       30.01F
MORRIS         SUNNY     70  30  23 SW6       30.00F
ALEXANDRIA     PTSUNNY   65  27  23 S5        30.01F
ELBOW LAKE     FAIR      67  30  25 W6        30.00F
WADENA         SUNNY     66  34  30 W6        29.99F
GLENWOOD       MOSUNNY   66  28  24 CALM      30.02F
APPLETON       MOSUNNY   70  25  18 W6        30.00F
BENSON         PTSUNNY   64  27  24 SW6       30.01F
ORTONVILLE     MOSUNNY   64  28  25 CALM      30.00F
MADISON        MOSUNNY   64  28  25 S6        30.01F
WILLMAR        FAIR      66  32  28 W6        30.03F
$$
MNZ033>034-036-042>043-049>051-058-059-022200-
   Central Minnesota

CITY           SKY/WX    TMP DP  RH WIND       PRES   REMARKS
ST CLOUD       SUNNY     67  31  26 VRB3      30.01F
SAUK CENTRE    MOCLDY    64  32  30 SE6       30.01F
PAYNESVILLE    CLOUDY    63  29  28 CALM      30.02F
AITKIN         SUNNY     66  19  16 CALM      29.99F
PINE RIVER     MOSUNNY   64  34  32 CALM      30.02F
BRAINERD       PTSUNNY   65  29  25 VRB3      30.00F
STAPLES        MOSUNNY   66  27  22 NW3       29.99F
LONG PRAIRIE   CLOUDY    61  30  31 CALM      30.02F
LITTLE FALLS   CLOUDY    64  30  27 S6        30.01F
LITCHFIELD     SUNNY     64  34  32 CALM      30.03F
BUFFALO        SUNNY     64  29  27 CALM      30.03F
MAPLE LAKE     MOSUNNY   64  35  34 SE3       30.04F
HUTCHINSON     SUNNY     65  36  34 E7        30.04F
$$
MNZ037-044-045-052-053-022200-
   East Central Minnesota

CITY           SKY/WX    TMP DP  RH WIND       PRES   REMARKS
PRINCETON      MOSUNNY   66  34  30 N3        30.02F
MORA           SUNNY     64  34  32 SE3       30.03F
CAMBRIDGE      PTSUNNY   68  45  42 NE3       30.00F
RUSH CITY      SUNNY     65  33  30 CALM      30.02F
MOOSE LAKE     SUNNY     64  32  29 S5        29.99F
HINCKLEY       FAIR      66  34  30 W6        30.01F
CLOQUET        MOSUNNY   64  25  22 SW8       30.00F
MCGREGOR       MOSUNNY   64  32  29 S5G17     30.01F
$$
MNZ071>073-080-081-089-090-097-098-022200-
   Southwest Minnesota

CITY           SKY/WX    TMP DP  RH WIND       PRES   REMARKS
MONTEVIDEO     MOSUNNY   70  36  28 CALM      30.03F
GRANITE FALLS  CLOUDY    68  34  28 S7        30.03F
CANBY          CLOUDY    66  36  32 NW5       30.02F
MARSHALL       PTSUNNY   66  34  30 SE9       30.02F
REDWOOD FALLS  MOSUNNY   66  28  24 VRB5      30.02F
OLIVIA         PTSUNNY   64  32  29 CALM      30.01F
PIPESTONE      CLOUDY    63  34  34 S6        30.03F
WINDOM         MOSUNNY   63  32  31 CALM      30.04F
WORTHINGTON    SUNNY     61  36  39 VRB5      30.05F
JACKSON        PTSUNNY   61  32  33 SW6       30.06S
TRACY          PTSUNNY   64  35  34 CALM      30.03F
SLAYTON        PTSUNNY   64  35  34 S5        30.05F
$$
MNZ065>067-074>077-082>085-091>093-022200-
   South Central Minnesota

CITY           SKY/WX    TMP DP  RH WIND       PRES   REMARKS
MANKATO        MOSUNNY   63  34  34 W5        30.04F
NEW ULM        SUNNY     64  34  32 W5        30.03F
ST JAMES       MOSUNNY   59  34  38 CALM      30.05F
FAIRMONT       CLOUDY    63  30  29 S7        30.05S
GLENCOE        SUNNY     65  36  34 CALM      30.02F
FARIBAULT      SUNNY     63  34  34 CALM      30.04F
OWATONNA       SUNNY     64  36  34 N5        30.04F
WASECA         MOSUNNY   63  34  34 SE3       30.05F
ALBERT LEA     PTSUNNY   61  37  41 SE6       30.05S
$$
MNZ078>079-086>088-094>096-022200-
   Southeast Minnesota

CITY           SKY/WX    TMP DP  RH WIND       PRES   REMARKS
ROCHESTER      CLOUDY    63  40  42 W12       30.04F
RED WING       MOSUNNY   68  30  24 SW6       30.02F
STANTON        SUNNY     64  31  28 CALM      30.02F
DODGE CENTER   PTSUNNY   61  36  39 CALM      30.05S
WINONA         PTSUNNY   61  32  33 CALM      30.04F
AUSTIN         SUNNY     61  39  44 W7        30.05F
PRESTON        CLOUDY    59  34  39 CALM      30.05F
$$
ABBREVIATIONS USED IN REMARKS
   TC - TEMPERATURES IN CELSIUS
  WCI - WIND CHILL INDEX
   HX - HEAT INDEX
  VSB - VISIBILITY
$$




USA.gov is the U.S. government's official web portal to all federal, state and local government web resources and services.